,,Stat5,,Stat1,,Stat2,,Stat3,,Stat4,,Wind1,,Wind1,
time,status,PA1M_AVG,status,PR1M_SUM,status,RH1M_AVG,status,SR1M_AVG,status,TA1M_AVG,status,W1dAve1m,status,W1sAve1m,
2003-01-01, 00:00:00,VALID,919.339,VALID,0,VALID,88.8216,VALID,0.0169808,VALID,18.7367,VALID,234,VALID,0,
2003-01-01, 00:01:00,VALID,919.325,VALID,0,VALID,89.0543,VALID,0.0169808,VALID,18.7238,VALID,234,VALID,0,
2003-01-01, 00:02:00,VALID,919.299,VALID,0,VALID,89.0899,VALID,0,VALID,18.724,VALID,234,VALID,0,
2003-01-01, 00:03:00,VALID,919.287,VALID,0,VALID,88.8864,VALID,0,VALID,18.7663,VALID,234,VALID,0,
2003-01-01, 00:04:00,VALID,919.279,VALID,0,VALID,88.9983,VALID,0,VALID,18.7534,VALID,234,VALID,0,
2003-01-01, 00:05:00,VALID,919.281,VALID,0,VALID,88.4503,VALID,0,VALID,18.6239,VALID,351,VALID,0.311061,
2003-01-01, 00:06:00,VALID,919.289,VALID,0,VALID,89.9266,VALID,0,VALID,18.5016,VALID,26,VALID,0.0199653,
2003-01-01, 00:07:00,VALID,919.305,VALID,0,VALID,90.3119,VALID,-0.0339617,VALID,18.4434,VALID,26,VALID,0.00105574,
2003-01-01, 00:08:00,VALID,919.319,VALID,0,VALID,90.673,VALID,-0.0849042,VALID,18.425,VALID,26,VALID,0,
2003-01-01, 00:09:00,VALID,919.336,VALID,0,VALID,90.4823,VALID,-0.0849042,VALID,18.4148,VALID,26,VALID,0,
2003-01-01, 00:10:00,VALID,919.346,VALID,0,VALID,90.0436,VALID,-0.0679233,VALID,18.4499,VALID,26,VALID,0,
2003-01-01, 00:11:00,VALID,919.347,VALID,0,VALID,89.8605,VALID,-0.0509425,VALID,18.4988,VALID,26,VALID,0,
2003-01-01, 00:12:00,VALID,919.339,VALID,0,VALID,88.6639,VALID,-0.0849042,VALID,18.5085,VALID,26,VALID,0.00633446,
2003-01-01, 00:13:00,VALID,919.332,VALID,0,VALID,88.8877,VALID,-0.0509425,VALID,18.3825,VALID,26,VALID,0.0123355,
2003-01-01, 00:14:00,VALID,919.299,VALID,0,VALID,89.8694,VALID,-0.0509425,VALID,18.3405,VALID,26,VALID,0,
2003-01-01, 00:15:00,VALID,919.284,VALID,0,VALID,90.0054,VALID,-0.0849042,VALID,18.3407,VALID,23,VALID,0.0175253,
2003-01-01, 00:16:00,VALID,919.273,VALID,0,VALID,90.0232,VALID,-0.101885,VALID,18.328,VALID,18,VALID,0.0451858,
2003-01-01, 00:17:00,VALID,919.275,VALID,0,VALID,89.9508,VALID,-0.0849042,VALID,18.2826,VALID,18,VALID,0.280828,
2003-01-01, 00:18:00,VALID,919.265,VALID,0,VALID,90.2203,VALID,-0.101885,VALID,18.2048,VALID,18,VALID,0.276816,
2003-01-01, 00:19:00,VALID,919.248,VALID,0,VALID,90.7582,VALID,-0.101885,VALID,18.1568,VALID,12,VALID,0.247179,
2003-01-01, 00:20:00,VALID,919.224,VALID,0,VALID,90.4848,VALID,-0.0339617,VALID,18.1111,VALID,358,VALID,0.291596,
2003-01-01, 00:21:00,VALID,919.198,VALID,0,VALID,90.8015,VALID,-0.0169808,VALID,18.0592,VALID,358,VALID,0.228566,
2003-01-01, 00:22:00,VALID,919.182,VALID,0,VALID,90.949,VALID,-0.0339617,VALID,18.0041,VALID,359,VALID,0.277238,
2003-01-01, 00:23:00,VALID,919.161,VALID,0,VALID,91.2262,VALID,0,VALID,17.9775,VALID,359,VALID,0.14597,
2003-01-01, 00:24:00,VALID,919.155,VALID,0,VALID,91.2974,VALID,0.0169808,VALID,17.9614,VALID,359,VALID,0.108173,
2003-01-01, 00:25:00,VALID,919.138,VALID,0,VALID,91.2453,VALID,0.0339617,VALID,17.9482,VALID,359,VALID,0.289474,
2003-01-01, 00:26:00,VALID,919.124,VALID,0,VALID,90.8422,VALID,0.0339617,VALID,17.9095,VALID,359,VALID,0.271484,
2003-01-01, 00:27:00,VALID,919.132,VALID,0,VALID,90.7798,VALID,0.0509425,VALID,17.816,VALID,359,VALID,0.319679,
2003-01-01, 00:28:00,VALID,919.14,VALID,0,VALID,91.4246,VALID,0.0169808,VALID,17.7452,VALID,360,VALID,0.254223,
2003-01-01, 00:29:00,VALID,919.153,VALID,0,VALID,91.7933,VALID,0.0169808,VALID,17.6771,VALID,11,VALID,0.245877,
2003-01-01, 00:30:00,VALID,919.169,VALID,0,VALID,92.3058,VALID,0.0169808,VALID,17.6481,VALID,3,VALID,0.147171,
2003-01-01, 00:31:00,VALID,919.165,VALID,0,VALID,92.6071,VALID,0.0169808,VALID,17.6705,VALID,357,VALID,0.010016,
2003-01-01, 00:32:00,VALID,919.161,VALID,0,VALID,92.4329,VALID,0.0339617,VALID,17.6926,VALID,357,VALID,0.00316723,
2003-01-01, 00:33:00,VALID,919.164,VALID,0,VALID,92.3401,VALID,0.0169808,VALID,17.7028,VALID,357,VALID,0,
2003-01-01, 00:34:00,VALID,919.168,VALID,0,VALID,92.2994,VALID,0.0339617,VALID,17.7288,VALID,357,VALID,0.101963,
2003-01-01, 00:35:00,VALID,919.157,VALID,0,VALID,91.9243,VALID,0.0339617,VALID,17.7385,VALID,11,VALID,0.271115,
2003-01-01, 00:36:00,VALID,919.156,VALID,0,VALID,91.8747,VALID,0,VALID,17.7387,VALID,13,VALID,0.208826,
2003-01-01, 00:37:00,VALID,919.165,VALID,0,VALID,91.979,VALID,-0.0339617,VALID,17.7424,VALID,14,VALID,0.0652449,
2003-01-01, 00:38:00,VALID,919.161,VALID,0,VALID,92.068,VALID,-0.0849042,VALID,17.7597,VALID,14,VALID,0.115076,
2003-01-01, 00:39:00,VALID,919.154,VALID,0,VALID,91.9192,VALID,-0.0849042,VALID,17.7849,VALID,14,VALID,0.131293,
2003-01-01, 00:40:00,VALID,919.159,VALID,0,VALID,91.4335,VALID,-0.101885,VALID,17.8051,VALID,17,VALID,0.225929,
2003-01-01, 00:41:00,VALID,919.148,VALID,0,VALID,91.1537,VALID,-0.101885,VALID,17.7438,VALID,54,VALID,0.538261,
2003-01-01, 00:42:00,VALID,919.124,VALID,0,VALID,91.2681,VALID,-0.0679233,VALID,17.624,VALID,61,VALID,0.281883,
2003-01-01, 00:43:00,VALID,919.13,VALID,0,VALID,91.8531,VALID,-0.101885,VALID,17.5237,VALID,61,VALID,0.388569,
2003-01-01, 00:44:00,VALID,919.124,VALID,0,VALID,92.246,VALID,-0.0849042,VALID,17.498,VALID,67,VALID,0.693109,
2003-01-01, 00:45:00,VALID,919.115,VALID,0,VALID,91.9612,VALID,-0.101885,VALID,17.5566,VALID,87,VALID,0.590255,
2003-01-01, 00:46:00,VALID,919.11,VALID,0,VALID,91.6255,VALID,-0.101885,VALID,17.6018,VALID,96,VALID,0.38303,
2003-01-01, 00:47:00,VALID,919.103,VALID,0,VALID,91.5784,VALID,-0.101885,VALID,17.6143,VALID,89,VALID,0.210938,
2003-01-01, 00:48:00,VALID,919.116,VALID,0,VALID,91.7005,VALID,-0.0849042,VALID,17.6079,VALID,89,VALID,0.361275,
2003-01-01, 00:49:00,VALID,919.117,VALID,0,VALID,92.2664,VALID,-0.0849042,VALID,17.5788,VALID,127,VALID,0.584418,
2003-01-01, 00:50:00,VALID,919.107,VALID,0,VALID,92.5537,VALID,-0.101885,VALID,17.5564,VALID,131,VALID,0.384713,
2003-01-01, 00:51:00,VALID,919.097,VALID,0,VALID,92.6618,VALID,-0.101885,VALID,17.5077,VALID,131,VALID,0.286058,
2003-01-01, 00:52:00,VALID,919.088,VALID,0,VALID,92.9072,VALID,-0.101885,VALID,17.4761,VALID,131,VALID,0.448269,
2003-01-01, 00:53:00,VALID,919.055,VALID,0,VALID,93.1908,VALID,-0.0679233,VALID,17.4429,VALID,150,VALID,0.0968339,
2003-01-01, 00:54:00,VALID,919.028,VALID,0,VALID,93.599,VALID,-0.101885,VALID,17.4369,VALID,138,VALID,0.384215,
2003-01-01, 00:55:00,VALID,919.015,VALID,0,VALID,93.9563,VALID,-0.118866,VALID,17.4593,VALID,133,VALID,0.253167,
2003-01-01, 00:56:00,VALID,919.026,VALID,0,VALID,93.9309,VALID,-0.101885,VALID,17.4724,VALID,137,VALID,0.523015,
2003-01-01, 00:57:00,VALID,919.02,VALID,0,VALID,94.0288,VALID,-0.101885,VALID,17.4856,VALID,134,VALID,0.517525,
2003-01-01, 00:58:00,VALID,919.017,VALID,0,VALID,93.9995,VALID,-0.101885,VALID,17.4853,VALID,132,VALID,0.634924,
2003-01-01, 00:59:00,VALID,919.016,VALID,0,VALID,94.6328,VALID,-0.101885,VALID,17.5054,VALID,141,VALID,0.685764,
2003-01-01, 01:00:00,VALID,919.005,VALID,0,VALID,93.7783,VALID,-0.118866,VALID,17.4825,VALID,140,VALID,0.0570101,
2003-01-01, 01:01:00,VALID,919.011,VALID,0,VALID,94.0784,VALID,-0.101885,VALID,17.4237,VALID,138,VALID,0.191506,
2003-01-01, 01:02:00,VALID,918.986,VALID,0,VALID,94.264,VALID,-0.0849042,VALID,17.4304,VALID,127,VALID,0.318412,
2003-01-01, 01:03:00,VALID,918.988,VALID,0,VALID,94.2412,VALID,0,VALID,17.4005,VALID,126,VALID,0.231291,
2003-01-01, 01:04:00,VALID,918.968,VALID,0,VALID,94.6468,VALID,0,VALID,17.3878,VALID,126,VALID,0.179487,
2003-01-01, 01:05:00,VALID,918.968,VALID,0,VALID,94.732,VALID,0.0169808,VALID,17.365,VALID,126,VALID,0.0530428,
2003-01-01, 01:06:00,VALID,918.963,VALID,0,VALID,94.8515,VALID,0.0169808,VALID,17.368,VALID,126,VALID,0.10829,
2003-01-01, 01:07:00,VALID,918.947,VALID,0,VALID,95.3589,VALID,0,VALID,17.397,VALID,126,VALID,0.372044,
2003-01-01, 01:08:00,VALID,918.938,VALID,0,VALID,95.687,VALID,0,VALID,17.4651,VALID,126,VALID,0.47424,
2003-01-01, 01:09:00,VALID,918.903,VALID,0,VALID,95.2483,VALID,0,VALID,17.4946,VALID,127,VALID,0.168186,
2003-01-01, 01:10:00,VALID,918.884,VALID,0,VALID,95.2953,VALID,-0.0169808,VALID,17.4806,VALID,128,VALID,0.072424,
2003-01-01, 01:11:00,VALID,918.856,VALID,0,VALID,94.9469,VALID,0,VALID,17.4812,VALID,128,VALID,0,
2003-01-01, 01:12:00,VALID,918.835,VALID,0,VALID,95.4377,VALID,0,VALID,17.478,VALID,128,VALID,0.381968,
2003-01-01, 01:13:00,VALID,918.817,VALID,0,VALID,95.9464,VALID,0,VALID,17.52,VALID,132,VALID,0.646793,
2003-01-01, 01:14:00,VALID,918.803,VALID,0,VALID,95.954,VALID,-0.0169808,VALID,17.5364,VALID,160,VALID,0.699119,
2003-01-01, 01:15:00,VALID,918.81,VALID,0,VALID,95.8536,VALID,-0.0169808,VALID,17.5327,VALID,147,VALID,0.0842483,
2003-01-01, 01:16:00,VALID,918.795,VALID,0,VALID,95.5115,VALID,-0.0339617,VALID,17.4939,VALID,145,VALID,0.545608,
2003-01-01, 01:17:00,VALID,918.798,VALID,0,VALID,95.8917,VALID,0,VALID,17.5006,VALID,143,VALID,0.57897,
2003-01-01, 01:18:00,VALID,918.788,VALID,0,VALID,95.8663,VALID,0,VALID,17.4972,VALID,136,VALID,0.261613,
2003-01-01, 01:19:00,VALID,918.775,VALID,0,VALID,94.774,VALID,-0.0169808,VALID,17.4328,VALID,135,VALID,0.135634,
2003-01-01, 01:20:00,VALID,918.754,VALID,0,VALID,93.7707,VALID,-0.0339617,VALID,17.2719,VALID,73,VALID,0.402027,
2003-01-01, 01:21:00,VALID,918.731,VALID,0,VALID,94.4103,VALID,-0.0169808,VALID,17.1654,VALID,67,VALID,0.509415,
2003-01-01, 01:22:00,VALID,918.706,VALID,0,VALID,95.3945,VALID,-0.0339617,VALID,17.1494,VALID,67,VALID,0.48353,
2003-01-01, 01:23:00,VALID,918.692,VALID,0,VALID,95.5891,VALID,-0.135847,VALID,17.1475,VALID,67,VALID,0.190995,
2003-01-01, 01:24:00,VALID,918.701,VALID,0,VALID,95.8726,VALID,-0.118866,VALID,17.1371,VALID,67,VALID,0.184896,
2003-01-01, 01:25:00,VALID,918.706,VALID,0,VALID,96.3062,VALID,-0.118866,VALID,17.1595,VALID,67,VALID,0.167763,
2003-01-01, 01:26:00,VALID,918.698,VALID,0,VALID,96.4919,VALID,-0.101885,VALID,17.2045,VALID,97,VALID,0.429905,
2003-01-01, 01:27:00,VALID,918.694,VALID,0,VALID,96.3164,VALID,-0.101885,VALID,17.2313,VALID,121,VALID,0.477618,
2003-01-01, 01:28:00,VALID,918.686,VALID,0,VALID,96.202,VALID,-0.135847,VALID,17.2114,VALID,122,VALID,0.106841,
2003-01-01, 01:29:00,VALID,918.673,VALID,0,VALID,95.7073,VALID,-0.101885,VALID,17.163,VALID,122,VALID,0.0405816,
2003-01-01, 01:30:00,VALID,918.657,VALID,0,VALID,95.776,VALID,-0.101885,VALID,17.1406,VALID,122,VALID,0.336782,
2003-01-01, 01:31:00,VALID,918.643,VALID,0,VALID,95.9375,VALID,-0.0679233,VALID,17.1238,VALID,113,VALID,0.495793,
2003-01-01, 01:32:00,VALID,918.632,VALID,0,VALID,95.9566,VALID,-0.101885,VALID,17.0915,VALID,108,VALID,0.374367,
2003-01-01, 01:33:00,VALID,918.612,VALID,0,VALID,96.1435,VALID,-0.118866,VALID,17.0921,VALID,139,VALID,0.500206,
2003-01-01, 01:34:00,VALID,918.591,VALID,0,VALID,96.5122,VALID,-0.101885,VALID,17.1079,VALID,146,VALID,0.683894,
2003-01-01, 01:35:00,VALID,918.578,VALID,0,VALID,97.232,VALID,-0.152827,VALID,17.1662,VALID,146,VALID,0.726985,
2003-01-01, 01:36:00,VALID,918.566,VALID,0,VALID,97.3718,VALID,-0.101885,VALID,17.2343,VALID,141,VALID,0.710304,
2003-01-01, 01:37:00,VALID,918.551,VALID,0,VALID,97.4253,VALID,-0.0849042,VALID,17.2689,VALID,137,VALID,0.736275,
2003-01-01, 01:38:00,VALID,918.538,VALID,0,VALID,97.1519,VALID,0,VALID,17.281,VALID,120,VALID,0.425465,
2003-01-01, 01:39:00,VALID,918.519,VALID,0,VALID,96.839,VALID,0,VALID,17.2327,VALID,113,VALID,0.463325,
2003-01-01, 01:40:00,VALID,918.494,VALID,0,VALID,97.0361,VALID,-0.0169808,VALID,17.2325,VALID,109,VALID,0.505701,
2003-01-01, 01:41:00,VALID,918.481,VALID,0,VALID,96.9789,VALID,0,VALID,17.2267,VALID,109,VALID,0.429688,
2003-01-01, 01:42:00,VALID,918.462,VALID,0,VALID,97.0857,VALID,-0.0339617,VALID,17.23,VALID,109,VALID,0.300887,
2003-01-01, 01:43:00,VALID,918.451,VALID,0,VALID,96.7666,VALID,-0.0169808,VALID,17.2104,VALID,105,VALID,0.524877,
2003-01-01, 01:44:00,VALID,918.426,VALID,0,VALID,96.4627,VALID,0,VALID,17.1714,VALID,98,VALID,0.54347,
2003-01-01, 01:45:00,VALID,918.444,VALID,0,VALID,96.6114,VALID,-0.0169808,VALID,17.1427,VALID,99,VALID,0.191612,
2003-01-01, 01:46:00,VALID,918.443,VALID,0,VALID,96.6686,VALID,-0.0339617,VALID,17.1328,VALID,99,VALID,0.187283,
2003-01-01, 01:47:00,VALID,918.452,VALID,0,VALID,96.689,VALID,-0.0169808,VALID,17.1197,VALID,99,VALID,0.248311,
2003-01-01, 01:48:00,VALID,918.45,VALID,0,VALID,96.5453,VALID,0,VALID,17.1102,VALID,103,VALID,0.479941,
2003-01-01, 01:49:00,VALID,918.44,VALID,0,VALID,96.7895,VALID,0.0169808,VALID,17.1163,VALID,113,VALID,0.421007,
2003-01-01, 01:50:00,VALID,918.434,VALID,0,VALID,96.7233,VALID,0,VALID,17.1165,VALID,121,VALID,0.662373,
2003-01-01, 01:51:00,VALID,918.413,VALID,0,VALID,97.0857,VALID,0,VALID,17.1552,VALID,130,VALID,0.767228,
2003-01-01, 01:52:00,VALID,918.393,VALID,0,VALID,97.0908,VALID,0.0169808,VALID,17.1873,VALID,127,VALID,0.521326,
2003-01-01, 01:53:00,VALID,918.373,VALID,0,VALID,96.8759,VALID,0,VALID,17.2332,VALID,130,VALID,0.577508,
2003-01-01, 01:54:00,VALID,918.339,VALID,0,VALID,96.8416,VALID,0.0169808,VALID,17.2297,VALID,140,VALID,0.748397,
2003-01-01, 01:55:00,VALID,918.302,VALID,0,VALID,97.2091,VALID,0,VALID,17.2657,VALID,146,VALID,0.753167,
2003-01-01, 01:56:00,VALID,918.295,VALID,0,VALID,97.4494,VALID,0,VALID,17.3006,VALID,144,VALID,0.629645,
2003-01-01, 01:57:00,VALID,918.307,VALID,0,VALID,97.6414,VALID,0.0169808,VALID,17.3619,VALID,140,VALID,0.601985,
2003-01-01, 01:58:00,VALID,918.307,VALID,0,VALID,97.602,VALID,0,VALID,17.43,VALID,139,VALID,0.427576,
2003-01-01, 01:59:00,VALID,918.292,VALID,0,VALID,97.3184,VALID,0,VALID,17.4427,VALID,134,VALID,0.40625,
2003-01-01, 02:00:00,VALID,918.275,VALID,0,VALID,96.9802,VALID,-0.0169808,VALID,17.427,VALID,116,VALID,0.43011,
2003-01-01, 02:01:00,VALID,918.258,VALID,0,VALID,97.3668,VALID,-0.0169808,VALID,17.4464,VALID,121,VALID,0.500601,
2003-01-01, 02:02:00,VALID,918.279,VALID,0,VALID,97.4469,VALID,-0.0169808,VALID,17.5047,VALID,124,VALID,0.501478,
2003-01-01, 02:03:00,VALID,918.281,VALID,0,VALID,97.218,VALID,0,VALID,17.5237,VALID,126,VALID,0.444285,
2003-01-01, 02:04:00,VALID,918.283,VALID,0,VALID,96.7627,VALID,-0.0169808,VALID,17.5308,VALID,126,VALID,0.253606,
2003-01-01, 02:05:00,VALID,918.265,VALID,0,VALID,96.455,VALID,0,VALID,17.4853,VALID,125,VALID,0.138569,
2003-01-01, 02:06:00,VALID,918.274,VALID,0,VALID,96.366,VALID,0,VALID,17.447,VALID,123,VALID,0.223524,
2003-01-01, 02:07:00,VALID,918.273,VALID,0,VALID,96.5389,VALID,0,VALID,17.411,VALID,127,VALID,0.242188,
2003-01-01, 02:08:00,VALID,918.303,VALID,0,VALID,96.5479,VALID,0,VALID,17.3951,VALID,123,VALID,0.471284,
2003-01-01, 02:09:00,VALID,918.3,VALID,0,VALID,96.9598,VALID,0,VALID,17.3942,VALID,120,VALID,0.817274,
2003-01-01, 02:10:00,VALID,918.299,VALID,0,VALID,96.8797,VALID,0,VALID,17.4242,VALID,121,VALID,0.927576,
2003-01-01, 02:11:00,VALID,918.265,VALID,0,VALID,96.6763,VALID,0,VALID,17.4464,VALID,127,VALID,0.834335,
2003-01-01, 02:12:00,VALID,918.272,VALID,0,VALID,96.4054,VALID,0.0169808,VALID,17.4726,VALID,140,VALID,0.524282,
2003-01-01, 02:13:00,VALID,918.278,VALID,0,VALID,96.1346,VALID,0,VALID,17.4756,VALID,135,VALID,0.628495,
2003-01-01, 02:14:00,VALID,918.275,VALID,0,VALID,95.996,VALID,0,VALID,17.4722,VALID,136,VALID,0.789663,
2003-01-01, 02:15:00,VALID,918.271,VALID,0,VALID,95.8548,VALID,-0.0169808,VALID,17.4849,VALID,128,VALID,0.744088,
2003-01-01, 02:16:00,VALID,918.257,VALID,0,VALID,95.5191,VALID,0,VALID,17.4787,VALID,121,VALID,1.11106,
2003-01-01, 02:17:00,VALID,918.26,VALID,0,VALID,95.3322,VALID,0,VALID,17.4752,VALID,125,VALID,1.00718,
2003-01-01, 02:18:00,VALID,918.273,VALID,0,VALID,95.041,VALID,0,VALID,17.5107,VALID,119,VALID,0.747044,
2003-01-01, 02:19:00,VALID,918.263,VALID,0,VALID,94.8299,VALID,0,VALID,17.5433,VALID,121,VALID,0.924913,
2003-01-01, 02:20:00,VALID,918.259,VALID,0,VALID,94.671,VALID,0,VALID,17.556,VALID,113,VALID,0.651605,
2003-01-01, 02:21:00,VALID,918.236,VALID,0,VALID,94.6137,VALID,0,VALID,17.5719,VALID,113,VALID,0.258013,
2003-01-01, 02:22:00,VALID,918.215,VALID,0,VALID,94.5552,VALID,-0.0339617,VALID,17.5891,VALID,110,VALID,0.293285,
2003-01-01, 02:23:00,VALID,918.213,VALID,0,VALID,94.2869,VALID,-0.0339617,VALID,17.5601,VALID,105,VALID,0.0888158,
2003-01-01, 02:24:00,VALID,918.193,VALID,0,VALID,94.1216,VALID,-0.0169808,VALID,17.495,VALID,105,VALID,0.316907,
2003-01-01, 02:25:00,VALID,918.176,VALID,0,VALID,94.6404,VALID,0,VALID,17.4694,VALID,108,VALID,0.966283,
2003-01-01, 02:26:00,VALID,918.134,VALID,0,VALID,95.0143,VALID,0,VALID,17.4722,VALID,119,VALID,1.23893,
2003-01-01, 02:27:00,VALID,918.117,VALID,0,VALID,94.8172,VALID,0,VALID,17.5144,VALID,118,VALID,1.26858,
2003-01-01, 02:28:00,VALID,918.096,VALID,0,VALID,94.7409,VALID,-0.0339617,VALID,17.5336,VALID,121,VALID,1.32728,
2003-01-01, 02:29:00,VALID,918.101,VALID,0,VALID,94.6087,VALID,-0.0169808,VALID,17.5626,VALID,125,VALID,1.32161,
2003-01-01, 02:30:00,VALID,918.091,VALID,0,VALID,94.2704,VALID,0,VALID,17.5954,VALID,121,VALID,1.25802,
2003-01-01, 02:31:00,VALID,918.098,VALID,0,VALID,93.9105,VALID,-0.0339617,VALID,17.6247,VALID,118,VALID,1.00441,
2003-01-01, 02:32:00,VALID,918.106,VALID,0,VALID,93.5519,VALID,0,VALID,17.6074,VALID,110,VALID,0.71875,
2003-01-01, 02:33:00,VALID,918.061,VALID,0,VALID,93.6575,VALID,-0.0169808,VALID,17.5952,VALID,110,VALID,0.870066,
2003-01-01, 02:34:00,VALID,918.022,VALID,0,VALID,93.7478,VALID,-0.0169808,VALID,17.5301,VALID,106,VALID,0.878005,
2003-01-01, 02:35:00,VALID,918.004,VALID,0,VALID,93.8253,VALID,-0.0339617,VALID,17.4916,VALID,110,VALID,0.796875,
2003-01-01, 02:36:00,VALID,917.996,VALID,0,VALID,93.6982,VALID,-0.0169808,VALID,17.4364,VALID,124,VALID,0.852407,
2003-01-01, 02:37:00,VALID,917.973,VALID,0,VALID,93.6117,VALID,-0.0169808,VALID,17.4078,VALID,133,VALID,0.943257,
2003-01-01, 02:38:00,VALID,917.969,VALID,0,VALID,93.6028,VALID,0,VALID,17.3947,VALID,138,VALID,0.970439,
2003-01-01, 02:39:00,VALID,917.956,VALID,0,VALID,93.6728,VALID,-0.0339617,VALID,17.382,VALID,140,VALID,1.28125,
2003-01-01, 02:40:00,VALID,917.944,VALID,0,VALID,93.9856,VALID,-0.0169808,VALID,17.3693,VALID,138,VALID,1.18138,
2003-01-01, 02:41:00,VALID,917.927,VALID,0,VALID,94.1712,VALID,0,VALID,17.3818,VALID,129,VALID,0.865785,
2003-01-01, 02:42:00,VALID,917.893,VALID,0,VALID,94.3264,VALID,0.0169808,VALID,17.3716,VALID,120,VALID,1.1742,
2003-01-01, 02:43:00,VALID,917.885,VALID,0,VALID,94.3302,VALID,-0.0169808,VALID,17.4207,VALID,110,VALID,1.45436,
2003-01-01, 02:44:00,VALID,917.863,VALID,0,VALID,94.0313,VALID,-0.0169808,VALID,17.4623,VALID,114,VALID,1.34736,
2003-01-01, 02:45:00,VALID,917.827,VALID,0,VALID,93.8978,VALID,0.0169808,VALID,17.5149,VALID,122,VALID,1.25637,
2003-01-01, 02:46:00,VALID,917.82,VALID,0,VALID,93.88,VALID,-0.0339617,VALID,17.5241,VALID,129,VALID,1.22504,
2003-01-01, 02:47:00,VALID,917.803,VALID,0,VALID,93.8444,VALID,0,VALID,17.5172,VALID,133,VALID,0.942356,
2003-01-01, 02:48:00,VALID,917.795,VALID,0,VALID,93.9055,VALID,-0.0339617,VALID,17.5047,VALID,129,VALID,0.98163,
2003-01-01, 02:49:00,VALID,917.755,VALID,0,VALID,94.2221,VALID,0,VALID,17.472,VALID,136,VALID,0.927734,
2003-01-01, 02:50:00,VALID,917.715,VALID,0,VALID,94.381,VALID,0.0169808,VALID,17.4657,VALID,130,VALID,0.660895,
2003-01-01, 02:51:00,VALID,917.717,VALID,0,VALID,94.4128,VALID,0,VALID,17.4431,VALID,112,VALID,0.498197,
2003-01-01, 02:52:00,VALID,917.71,VALID,0,VALID,94.1827,VALID,-0.0169808,VALID,17.4237,VALID,121,VALID,0.94848,
2003-01-01, 02:53:00,VALID,917.683,VALID,0,VALID,93.6753,VALID,-0.0509425,VALID,17.4212,VALID,115,VALID,1.10403,
2003-01-01, 02:54:00,VALID,917.665,VALID,0,VALID,93.2506,VALID,-0.0679233,VALID,17.4505,VALID,116,VALID,1.14483,
2003-01-01, 02:55:00,VALID,917.651,VALID,0,VALID,92.4456,VALID,-0.0679233,VALID,17.4886,VALID,98,VALID,0.769637,
2003-01-01, 02:56:00,VALID,917.644,VALID,0,VALID,92.2956,VALID,-0.0679233,VALID,17.4823,VALID,93,VALID,0.625,
2003-01-01, 02:57:00,VALID,917.632,VALID,0,VALID,93.1692,VALID,-0.0169808,VALID,17.4074,VALID,93,VALID,0.935389,
2003-01-01, 02:58:00,VALID,917.623,VALID,0,VALID,93.4184,VALID,-0.0169808,VALID,17.3688,VALID,88,VALID,1.12965,
2003-01-01, 02:59:00,VALID,917.615,VALID,0,VALID,93.2391,VALID,0,VALID,17.346,VALID,89,VALID,1.15386,
2003-01-01, 03:00:00,VALID,917.616,VALID,0,VALID,93.098,VALID,-0.0169808,VALID,17.3172,VALID,93,VALID,1.21854,
2003-01-01, 03:01:00,VALID,917.611,VALID,0,VALID,93.1018,VALID,-0.0169808,VALID,17.3081,VALID,87,VALID,1.15044,
2003-01-01, 03:02:00,VALID,917.608,VALID,0,VALID,93.1794,VALID,-0.0169808,VALID,17.2715,VALID,89,VALID,1.04519,
2003-01-01, 03:03:00,VALID,917.613,VALID,0,VALID,93.2073,VALID,0,VALID,17.2526,VALID,100,VALID,1.07257,
2003-01-01, 03:04:00,VALID,917.63,VALID,0,VALID,92.9912,VALID,-0.0169808,VALID,17.2849,VALID,116,VALID,0.742188,
2003-01-01, 03:05:00,VALID,917.649,VALID,0,VALID,92.7012,VALID,0,VALID,17.3296,VALID,128,VALID,0.666735,
2003-01-01, 03:06:00,VALID,917.678,VALID,0,VALID,92.5563,VALID,0,VALID,17.3458,VALID,128,VALID,0.635851,
2003-01-01, 03:07:00,VALID,917.68,VALID,0,VALID,92.5741,VALID,-0.0169808,VALID,17.3529,VALID,119,VALID,0.788007,
2003-01-01, 03:08:00,VALID,917.694,VALID,0,VALID,92.6173,VALID,-0.0509425,VALID,17.3337,VALID,123,VALID,1.06947,
2003-01-01, 03:09:00,VALID,917.692,VALID,0,VALID,92.4863,VALID,-0.0169808,VALID,17.3594,VALID,122,VALID,1.20833,
2003-01-01, 03:10:00,VALID,917.701,VALID,0,VALID,92.3427,VALID,0,VALID,17.408,VALID,125,VALID,1.10051,
2003-01-01, 03:11:00,VALID,917.682,VALID,0,VALID,92.1214,VALID,-0.0509425,VALID,17.4565,VALID,125,VALID,1.19291,
2003-01-01, 03:12:00,VALID,917.683,VALID,0,VALID,91.8823,VALID,-0.0169808,VALID,17.5052,VALID,120,VALID,1.05321,
2003-01-01, 03:13:00,VALID,917.675,VALID,0,VALID,91.8734,VALID,-0.0169808,VALID,17.5301,VALID,122,VALID,1.17743,
2003-01-01, 03:14:00,VALID,917.656,VALID,0,VALID,91.6903,VALID,0,VALID,17.543,VALID,127,VALID,1.05909,
2003-01-01, 03:15:00,VALID,917.637,VALID,0,VALID,91.6725,VALID,-0.0339617,VALID,17.5529,VALID,124,VALID,0.980152,
2003-01-01, 03:16:00,VALID,917.601,VALID,0,VALID,91.5988,VALID,-0.0169808,VALID,17.5465,VALID,113,VALID,1.02639,
2003-01-01, 03:17:00,VALID,917.583,VALID,0,VALID,91.6573,VALID,0,VALID,17.5179,VALID,121,VALID,1.29878,
2003-01-01, 03:18:00,VALID,917.567,VALID,0,VALID,91.5568,VALID,-0.0509425,VALID,17.5017,VALID,123,VALID,1.22403,
2003-01-01, 03:19:00,VALID,917.565,VALID,0,VALID,91.4093,VALID,0.0169808,VALID,17.5082,VALID,116,VALID,1.19835,
2003-01-01, 03:20:00,VALID,917.566,VALID,0,VALID,91.2694,VALID,-0.0509425,VALID,17.5079,VALID,120,VALID,1.09692,
2003-01-01, 03:21:00,VALID,917.554,VALID,0,VALID,91.1537,VALID,0,VALID,17.4983,VALID,129,VALID,0.992989,
2003-01-01, 03:22:00,VALID,917.555,VALID,0,VALID,91.1702,VALID,-0.0169808,VALID,17.4888,VALID,131,VALID,0.839105,
2003-01-01, 03:23:00,VALID,917.545,VALID,0,VALID,91.2859,VALID,0,VALID,17.4625,VALID,131,VALID,0.696752,
2003-01-01, 03:24:00,VALID,917.562,VALID,0,VALID,91.4246,VALID,0,VALID,17.4177,VALID,135,VALID,0.422276,
2003-01-01, 03:25:00,VALID,917.538,VALID,0,VALID,91.4716,VALID,-0.0169808,VALID,17.3624,VALID,114,VALID,0.597656,
2003-01-01, 03:26:00,VALID,917.527,VALID,0,VALID,91.4106,VALID,-0.0339617,VALID,17.3079,VALID,96,VALID,0.876302,
2003-01-01, 03:27:00,VALID,917.508,VALID,0,VALID,91.553,VALID,-0.0339617,VALID,17.211,VALID,88,VALID,0.834037,
2003-01-01, 03:28:00,VALID,917.501,VALID,0,VALID,91.9383,VALID,-0.0339617,VALID,17.0973,VALID,88,VALID,0.594383,
2003-01-01, 03:29:00,VALID,917.501,VALID,0,VALID,92.7483,VALID,0,VALID,17.014,VALID,101,VALID,0.512153,
2003-01-01, 03:30:00,VALID,917.485,VALID,0,VALID,93.229,VALID,-0.0169808,VALID,16.966,VALID,120,VALID,0.869932,
2003-01-01, 03:31:00,VALID,917.468,VALID,0,VALID,93.5354,VALID,-0.0849042,VALID,16.9395,VALID,120,VALID,0.828926,
2003-01-01, 03:32:00,VALID,917.443,VALID,0,VALID,93.229,VALID,-0.0339617,VALID,16.9593,VALID,105,VALID,0.455025,
2003-01-01, 03:33:00,VALID,917.456,VALID,0,VALID,91.9027,VALID,-0.0509425,VALID,16.8557,VALID,103,VALID,0.0847039,
2003-01-01, 03:34:00,VALID,917.469,VALID,0,VALID,92.4444,VALID,-0.0679233,VALID,16.7492,VALID,103,VALID,0.238782,